Hourly Data Report for June 18, 2021

WESTERN HEAD
NOVA SCOTIA
Current Station Operator: ECCC - MSC

43°59'24.070" N
64°39'51.008" W
10.10 m
8206240
71411
WWE

Download Data

Hourly Data (June 2021)
Hourly Data Report for June 18, 2021
TIME
LST
Temp Definition
°C
Dew Point Definition
°C
Rel Hum Definition
%
Precip. Amount Definition
mm

Wind Dir Definition
10's deg

Wind Spd Definition
km/h
Visibility Definition
km
Stn Press Definition
kPa
Hmdx Definition


Wind Chill Definition


Weather Definition


00:00 9.4 9.2 99 0.0 22 11   101.34     LegendNANA
01:00 8.8 8.8 100 0.0 22 11   101.36     LegendNANA
02:00 9.3 9.3 100 0.0 21 12   101.35     LegendNANA
03:00 8.6 8.6 100 0.0 23 12   101.37     LegendNANA
04:00 7.4 7.4 100 0.0 25 7   101.41     LegendNANA
05:00 7.5 7.5 100 0.0 23 10   101.44     LegendNANA
06:00 10.4 LegendMM LegendMM 0.0 24 6   101.48     LegendNANA
07:00 13.2 LegendMM LegendMM 0.0 23 6   101.49     LegendNANA
08:00 13.0 11.6 91 0.0 21 9   101.50     LegendNANA
09:00 13.6 11.9 90 0.0 20 9   101.47     LegendNANA
10:00 15.2 12.2 83 0.0 22 9   101.46     LegendNANA
11:00 16.1 12.4 79 0.0 22 10   101.46     LegendNANA
12:00 16.8 12.5 76 0.0 19 17   101.43     LegendNANA
13:00 15.3 11.2 76 0.0 18 25   101.41     LegendNANA
14:00 14.9 11.3 79 0.0 20 20   101.36     LegendNANA
15:00 15.2 11.1 76 0.0 20 24   101.36     LegendNANA
16:00 15.1 10.6 75 0.0 20 25   101.31     LegendNANA
17:00 14.1 9.7 75 0.0 20 26   101.28     LegendNANA
18:00 13.1 9.7 80 0.0 20 28   101.31     LegendNANA
19:00 11.9 9.4 85 0.0 20 23   101.31     LegendNANA
20:00 10.8 9.6 92 0.0 21 24   101.32     LegendNANA
21:00 9.8 9.3 97 0.0 22 15   101.34     LegendNANA
22:00 10.0 9.3 95 0.0 23 13   101.33     LegendNANA
23:00 9.7 9.5 99 0.0 21 13   101.25     LegendNANA

Notes on Data Quality.

Legend

  • E = Estimated
  • M = Missing
  • NA = Not Available*
  • [empty] = Indicates an unobserved value
Date modified: